This is the latest recevied weather packets stored in our database for station/object LU8FCJ-5. If no packets are shown the sender has not sent any weather packets the latest 10 day(s).
| Time | Temp. | Humidity | Pressure | Rain* | Wind** | Luminosity | Snow |
|---|---|---|---|---|---|---|---|
| 1777570099 | 25.56° C | 45% | 1011.2 hPa | 0 mm | - | - | - |
| 1777569788 | 25.56° C | 44% | 1011.3 hPa | 0 mm | - | - | - |
| 1777569477 | 25.56° C | 43% | 1011.3 hPa | 0 mm | - | - | - |
| 1777569166 | 25.56° C | 40% | 1011.3 hPa | 0 mm | - | - | - |
| 1777568857 | 25.56° C | 38% | 1011.7 hPa | 0 mm | - | - | - |
| 1777568547 | 25.56° C | 37% | 1011.7 hPa | 0 mm | - | - | - |
| 1777568236 | 25.56° C | 37% | 1011.7 hPa | 0 mm | - | - | - |
| 1777567926 | 25.56° C | 38% | 1011.9 hPa | 0 mm | - | - | - |
| 1777567615 | 25.56° C | 37% | 1012 hPa | 0 mm | - | - | - |
| 1777567306 | 25° C | 36% | 1012.3 hPa | 0 mm | - | - | - |
| 1777566995 | 25° C | 36% | 1012.2 hPa | 0 mm | - | - | - |
| 1777566685 | 25° C | 37% | 1012.3 hPa | 0 mm | - | - | - |
| 1777566387 | 25° C | 36% | 1012.3 hPa | 0 mm | - | - | - |
| 1777566065 | 25° C | 36% | 1012.6 hPa | 0 mm | - | - | - |
| 1777565754 | 25° C | 37% | 1012.4 hPa | 0 mm | - | - | - |
| 1777565445 | 25° C | 36% | 1012.7 hPa | 0 mm | - | - | - |
| 1777565134 | 24.44° C | 38% | 1012.8 hPa | 0 mm | - | - | - |
| 1777564833 | 24.44° C | 38% | 1012.8 hPa | 0 mm | - | - | - |
| 1777564513 | 24.44° C | 39% | 1013.2 hPa | 0 mm | - | - | - |
| 1777564204 | 24.44° C | 41% | 1013.2 hPa | 0 mm | - | - | - |
| 1777563893 | 23.89° C | 42% | 1013 hPa | 0 mm | - | - | - |
| 1777563583 | 24.44° C | 41% | 1013.2 hPa | 0 mm | - | - | - |
| 1777563273 | 23.89° C | 43% | 1013.6 hPa | 0 mm | - | - | - |
| 1777562964 | 23.89° C | 44% | 1013.5 hPa | 0 mm | - | - | - |
| 1777562653 | 23.33° C | 44% | 1013.4 hPa | 0 mm | - | - | - |
* Rain latest hour (hover to see other rain measurements)
** Current wind speed in m/s (hover to see current wind gust speed)